Join Today

Capital City Aviation is creating Tomorrows Pilots Today!

Come and experience the Freeedom of Flight!

Join Today
Checkout the National Weather Services “NEW” Aviation Weather website. Let us know what you think!Learn More
One of the webs greatest supplemental resources for students, pilots and aviation enthusiasts.Learn More
SkyVector has grown in popularity to become the number one internet destination for aeronautical charts and publications!Learn More
Welcome to CSC Duats! Where we have been serving pilots since 1989. File your IFR / VFR flight plan today!Learn More
To provide aviation students and members with the highest quality instruction and rental aircraft in the central Ohio region. 

We employ the best of the best that Central Ohio has to offer. With total team experience exceeding 50 years we have what it takes to not only train at a level that exceeds most clubs but that are comparable to many of the top tier schools within the country.
To share the joy of that  which we love most…FLYING!!
To provide our students and members with a safe positive flying experience all at an excellent value .

    Current METAR for KOSU
    KOSU 221453Z 13003KT 4SM HZ OVC049 00/M03 A3006 RMK AO2 SLP188 T00001028 57001
    Current METAR for KCMH
    KCMH 221451Z 12004KT 6SM HZ OVC055 01/M03 A3006 RMK AO2 SLP187 T00061033 58002
    Current METAR for KTZR
    KTZR 221459Z 08005KT 7SM OVC049 M01/M03 A3005
    Current METAR for KLCK
    KLCK 221515Z AUTO 04004KT 7SM OVC060 00/M02 A3005 RMK AO2 T00001018
Note: This calculator is provided as a convenience only. Should you be planning a trip by air you should always use official sectional charts and other prudent and official sources of information on which to base your flight planning and go/no-go decisions.

Central Ohio’s Ultimate Aviation Club House

While we pride ourselves in the level of professionalism and sincerity that we approach our training with, we also place a major emphasis on making training fun. Aviation is serious business but it should always be enjoyable. We foster a relaxed atmosphere that promotes learning instead of causing intimidation or anxiety. The aviation community is very tight-knit and at Capital City Aviation we like to think of our customers and employees as a small family within that community. Our club house offers a lounge, student work areas, briefing rooms and work stations. We also provide FREE Wifi in order for our members to get up-to-date information for all their flying needs.

Capital City Aviation is located above Hanger 2 at the Ohio State University Airport

2160 West Case Road,
Columbus, OH 43235
Phone: (614) 459-2541
Web: www.capitalcityaviation.com

CCA Directions